EW9917 Weather Reports


time (UTC)temp
C
wind
direction
speed
KPH
gust
KPH
rain 1hr
cm
rain 24hr
cm
rain mn
cm
humidity
%
barometer
mb
20260505152721 12 164 1.6 6.4 0.00 0.00 0.00 79 1014.8
20260505152042 12 138 1.6 3.2 0.00 0.00 0.00 81 1014.8
20260505151400 12 154 1.6 3.2 0.00 0.00 0.00 81 1014.8
20260505150932 12 7 1.6 3.2 0.00 0.00 0.00 82 1014.7
20260505140253 11 171 1.6 6.4 0.00 0.00 0.00 86 1014.3
20260505124720 12 210 0.0 0.0 0.00 0.00 0.00 82 1013.8
20260505124040 12 214 0.0 0.0 0.00 0.00 0.00 82 1013.8
20260505123401 12 328 0.0 1.6 0.00 0.00 0.00 82 1013.8
20260505122721 12 205 0.0 0.0 0.00 0.00 0.00 81 1013.8
20260505122252 12 205 0.0 1.6 0.00 0.00 0.00 81 1013.8
20260505121401 12 321 0.0 1.6 0.00 0.00 0.00 81 1013.8
20260505120721 12 268 0.0 1.6 0.00 0.00 0.00 81 1013.8
20260505120041 12 330 0.0 0.0 0.00 0.00 0.00 82 1013.8
20260505115401 12 308 0.0 1.6 0.00 0.00 0.00 82 1013.7
20260505114721 12 210 0.0 1.6 0.00 0.00 0.00 81 1013.7
20260505114041 12 182 0.0 1.6 0.00 0.00 0.00 81 1013.7
20260505113401 12 315 0.0 1.6 0.00 0.00 0.00 81 1013.8
20260505112721 12 284 0.0 1.6 0.00 0.00 0.00 82 1013.7
20260505112041 12 280 0.0 3.2 0.00 0.00 0.00 82 1013.6
20260505111401 12 281 1.6 3.2 0.00 0.00 0.00 81 1013.6
20260505110721 12 291 0.0 1.6 0.00 0.00 0.00 82 1013.4
20260505102040 11 279 1.6 4.8 0.00 0.00 0.00 83 1013.2
20260505101402 11 288 3.2 4.8 0.00 0.00 0.00 83 1013.2
20260505100721 11 287 3.2 4.8 0.00 0.00 0.00 84 1013.2
20260505100041 11 283 0.0 4.8 0.00 0.00 0.00 83 1013.1
20260505095401 11 299 3.2 4.8 0.00 0.00 0.00 83 1013.1
20260505094932 11 303 1.6 4.8 0.00 0.00 0.00 83 1013.1
20260505094041 11 9 0.0 3.2 0.00 0.00 0.00 83 1013.1
20260505093401 11 314 1.6 3.2 0.00 0.00 0.00 84 1013.1
20260505092721 11 330 0.0 1.6 0.00 0.00 0.00 84 1013.1
20260505092041 11 335 0.0 1.6 0.00 0.00 0.00 83 1013.0
20260505091401 12 274 0.0 3.2 0.00 0.00 0.00 83 1012.9
20260505090721 12 22 1.6 3.2 0.00 0.00 0.00 84 1012.9
20260505090041 12 33 0.0 1.6 0.00 0.00 0.00 83 1012.8
20260505085612 12 356 1.6 3.2 0.00 0.00 0.00 84 1012.7
20260505084722 11 324 0.0 1.6 0.00 0.00 0.00 84 1012.6
20260505084041 12 44 0.0 1.6 0.00 0.00 0.00 82 1012.6
20260505083401 12 346 0.0 3.2 0.00 0.00 0.00 83 1012.6
20260505082721 12 316 0.0 3.2 0.00 0.00 0.00 81 1012.6
20260505082041 12 285 1.6 3.2 0.00 0.00 0.00 81 1012.6
20260505081611 12 311 0.0 4.8 0.00 0.00 0.00 79 1012.6
20260505080721 12 295 3.2 4.8 0.00 0.00 0.00 79 1012.5
20260505080252 12 319 3.2 6.4 0.00 0.00 0.00 78 1012.4
20260505075613 12 286 3.2 9.7 0.00 0.00 0.00 77 1012.4
20260505074933 13 290 6.4 9.7 0.00 0.00 0.00 76 1012.3
20260505074041 13 314 1.6 3.2 0.00 0.00 0.00 78 1012.2
20260505073615 13 294 0.0 3.2 0.00 0.00 0.00 78 1012.0
20260505072721 13 274 1.6 3.2 0.00 0.00 0.00 76 1011.9
20260505072251 13 310 0.0 3.2 0.00 0.00 0.00 77 1011.9
20260505071401 13 297 0.0 1.6 0.00 0.00 0.00 77 1011.8
20260505070721 13 325 0.0 1.6 0.00 0.00 0.00 76 1011.8
20260505070041 13 266 0.0 4.8 0.00 0.00 0.00 75 1011.7
20260505065401 13 308 0.0 4.8 0.00 0.00 0.00 75 1011.7
20260505064721 13 278 1.6 6.4 0.00 0.00 0.00 74 1011.6
20260505064041 13 281 1.6 6.4 0.00 0.00 0.00 75 1011.5
20260505063401 14 268 0.0 11.3 0.00 0.00 0.00 75 1011.4
20260505062721 14 290 1.6 11.3 0.00 0.00 0.00 73 1011.3
20260505062041 14 266 0.0 4.8 0.00 0.00 0.00 74 1011.2
20260505061401 14 279 0.0 6.4 0.00 0.00 0.00 74 1011.1
20260505060721 15 287 3.2 6.4 0.00 0.00 0.00 73 1011.0
20260505060041 15 267 1.6 8.0 0.00 0.00 0.00 72 1010.9
20260505055401 15 282 1.6 8.0 0.00 0.00 0.00 72 1010.9
20260505054721 15 282 1.6 8.0 0.00 0.00 0.00 72 1010.9
20260505054041 15 286 3.2 8.0 0.00 0.00 0.00 71 1010.8
20260505053401 15 306 4.8 8.0 0.00 0.00 0.00 70 1010.9
20260505052720 15 290 1.6 9.7 0.00 0.00 0.00 70 1010.7
20260505052252 16 285 4.8 9.7 0.00 0.00 0.00 69 1010.6
20260505051613 16 281 1.6 6.4 0.00 0.00 0.00 69 1010.6
20260505050934 16 263 1.6 11.3 0.00 0.00 0.00 68 1010.5
20260505041401 18 269 1.6 3.2 0.00 0.00 0.00 61 1010.0
20260505040721 18 245 1.6 8.0 0.00 0.00 0.00 60 1009.9
20260505040041 19 229 0.0 9.7 0.00 0.00 0.00 60 1009.8
20260505035611 19 259 1.6 8.0 0.00 0.00 0.00 61 1009.7
20260505034721 20 250 1.6 3.2 0.00 0.00 0.00 60 1009.6
20260505034041 20 231 0.0 8.0 0.00 0.00 0.00 60 1009.5
20260505033401 20 194 1.6 3.2 0.00 0.00 0.00 60 1009.4
20260505032722 20 206 1.6 3.2 0.00 0.00 0.00 59 1009.3
20260505032041 20 203 1.6 6.4 0.00 0.00 0.00 58 1009.2
20260505031402 21 200 1.6 6.4 0.00 0.00 0.00 57 1009.1
20260505030721 21 182 1.6 4.8 0.00 0.00 0.00 56 1009.1
20260505030040 21 202 1.6 6.4 0.00 0.00 0.00 54 1009.0
20260505025400 21 174 1.6 8.0 0.00 0.00 0.00 53 1009.0
20260505024721 21 178 3.2 8.0 0.00 0.00 0.00 53 1008.9
20260505024041 22 167 3.2 6.4 0.00 0.00 0.00 51 1008.9
20260505023613 22 251 0.0 6.4 0.00 0.00 0.00 50 1008.8
20260505022721 22 202 1.6 6.4 0.00 0.00 0.00 50 1008.9
20260505022042 22 160 1.6 4.8 0.00 0.00 0.00 51 1008.8
20260505021400 22 171 1.6 4.8 0.00 0.00 0.00 52 1008.8
20260505020721 22 156 0.0 6.4 0.00 0.00 0.00 53 1008.8
20260505020041 22 166 3.2 6.4 0.00 0.00 0.00 53 1008.8
20260505015401 22 159 1.6 4.8 0.00 0.00 0.00 53 1008.8
20260505014721 23 173 1.6 4.8 0.00 0.00 0.00 52 1008.7
20260505014041 23 179 3.2 14.5 0.00 0.00 0.00 52 1008.8
20260505013401 22 171 6.4 14.5 0.00 0.00 0.00 53 1008.7
20260505012721 23 150 4.8 12.9 0.00 0.00 0.00 52 1008.7
20260505012041 22 180 3.2 12.9 0.00 0.00 0.00 53 1008.8
20260505011401 23 196 4.8 16.1 0.00 0.00 0.00 52 1008.8
20260505010721 23 180 3.2 16.1 0.00 0.00 0.00 52 1008.8
20260505010042 23 144 4.8 12.9 0.00 0.00 0.00 50 1008.9
20260505005401 22 179 4.8 11.3 0.00 0.00 0.00 52 1009.0
20260505004933 23 182 3.2 11.3 0.00 0.00 0.00 51 1009.1
20260505004041 23 200 0.0 14.5 0.00 0.00 0.00 47 1009.1
20260505003400 23 178 4.8 14.5 0.00 0.00 0.00 50 1009.0
20260505002720 23 194 3.2 11.3 0.00 0.00 0.00 47 1009.0
20260505002041 23 199 4.8 11.3 0.00 0.00 0.00 48 1008.9
20260505001401 23 182 1.6 17.7 0.00 0.00 0.00 47 1008.9
20260505000722 23 163 4.8 17.7 0.00 0.00 0.00 49 1009.0
20260505000042 23 173 4.8 9.7 0.00 0.00 0.00 47 1009.2
20260504235400 23 173 3.2 11.3 0.00 0.00 0.00 47 1009.2
20260504234721 23 172 4.8 11.3 0.00 0.00 0.00 47 1009.2
20260504234041 23 184 3.2 9.7 0.00 0.00 0.00 46 1009.2
20260504233401 23 184 3.2 16.1 0.00 0.00 0.00 46 1009.3
20260504232721 23 170 6.4 16.1 0.00 0.00 0.00 48 1009.3
20260504232042 23 168 3.2 9.7 0.00 0.00 0.00 45 1009.3
20260504231401 23 188 3.2 20.9 0.00 0.00 0.00 45 1009.4
20260504230721 22 164 8.0 20.9 0.00 0.00 0.00 48 1009.5
20260504230041 23 258 1.6 9.7 0.00 0.00 0.00 44 1009.5
20260504225401 23 207 1.6 8.0 0.00 0.00 0.00 45 1009.6
20260504224721 23 314 3.2 6.4 0.00 0.00 0.00 45 1009.7
20260504224041 23 209 1.6 6.4 0.00 0.00 0.00 44 1009.8
20260504223401 22 200 1.6 6.4 0.00 0.00 0.00 46 1009.9
20260504222932 22 176 3.2 9.7 0.00 0.00 0.00 45 1010.0
20260504222042 22 176 3.2 9.7 0.00 0.00 0.00 46 1010.0
20260504221400 22 178 3.2 9.7 0.00 0.00 0.00 46 1010.1
20260504220720 21 142 3.2 11.3 0.00 0.00 0.00 47 1010.3
20260504220041 22 171 3.2 11.3 0.00 0.00 0.00 46 1010.4
20260504215401 21 175 3.2 11.3 0.00 0.00 0.00 47 1010.4
20260504214721 21 133 3.2 9.7 0.00 0.00 0.00 47 1010.4
20260504214041 21 162 3.2 11.3 0.00 0.00 0.00 46 1010.4
20260504213401 21 139 3.2 12.9 0.00 0.00 0.00 46 1010.5
20260504212721 20 115 3.2 12.9 0.00 0.00 0.00 47 1010.6
20260504212041 22 247 1.6 9.7 0.00 0.00 0.00 46 1010.7
20260504211401 21 196 1.6 12.9 0.00 0.00 0.00 48 1010.9
20260504210721 21 196 3.2 12.9 0.00 0.00 0.00 48 1011.1
20260504210041 21 100 3.2 9.7 0.00 0.00 0.00 46 1011.1
20260504205402 21 159 4.8 11.3 0.00 0.00 0.00 48 1011.2
20260504204931 21 203 3.2 11.3 0.00 0.00 0.00 48 1011.3
20260504204041 20 340 1.6 11.3 0.00 0.00 0.00 48 1011.4
20260504203401 20 147 4.8 11.3 0.00 0.00 0.00 51 1011.5
20260504202933 20 194 3.2 11.3 0.00 0.00 0.00 50 1011.6
20260504202041 19 152 3.2 12.9 0.00 0.00 0.00 52 1011.6
20260504201401 18 123 1.6 9.7 0.00 0.00 0.00 51 1011.7
20260504200721 18 183 3.2 12.9 0.00 0.00 0.00 55 1011.7
20260504200041 18 145 6.4 11.3 0.00 0.00 0.00 52 1011.8
20260504195401 18 107 3.2 9.7 0.00 0.00 0.00 51 1011.8
20260504194720 18 69 1.6 9.7 0.00 0.00 0.00 53 1011.8
20260504194041 18 53 3.2 9.7 0.00 0.00 0.00 52 1011.9
20260504193401 17 171 6.4 11.3 0.00 0.00 0.00 56 1011.9
20260504192722 17 153 3.2 11.3 0.00 0.00 0.00 55 1011.9
20260504192041 17 54 4.8 11.3 0.00 0.00 0.00 54 1011.9
20260504191615 17 153 3.2 11.3 0.00 0.00 0.00 58 1012.0
20260504190721 16 172 6.4 11.3 0.00 0.00 0.00 61 1012.0
20260504190041 16 162 1.6 9.7 0.00 0.00 0.00 60 1012.0
20260504185401 16 333 4.8 6.4 0.00 0.00 0.00 60 1012.1
20260504184951 16 329 4.8 11.3 0.00 0.00 0.00 61 1012.1
20260504184311 16 122 1.6 11.3 0.00 0.00 0.00 63 1012.3
20260504183631 16 292 1.6 9.7 0.00 0.00 0.00 63 1012.4
20260504182951 15 343 4.8 9.7 0.00 0.00 0.00 66 1012.2
20260504182311 16 151 1.6 11.3 0.00 0.00 0.00 63 1012.0
20260504181631 16 286 0.0 4.8 0.00 0.00 0.00 65 1012.0
20260504180951 15 195 1.6 9.7 0.00 0.00 0.00 65 1012.1
20260504180311 15 110 4.8 9.7 0.00 0.00 0.00 66 1012.3
20260504175631 15 138 4.8 8.0 0.00 0.00 0.00 66 1012.3
20260504174952 15 170 1.6 6.4 0.00 0.00 0.00 67 1012.3
20260504174311 15 170 1.6 6.4 0.00 0.00 0.00 66 1012.4
20260504173843 15 204 0.0 3.2 0.00 0.00 0.00 67 1012.4
20260504172951 15 99 1.6 9.7 0.00 0.00 0.00 69 1012.4
20260504172310 14 173 3.2 8.0 0.00 0.00 0.00 70 1012.4
20260504171630 14 183 3.2 9.7 0.00 0.00 0.00 71 1012.3
20260504171205 14 141 6.4 9.7 0.00 0.00 0.00 69 1012.3
20260504170311 14 238 1.6 11.3 0.00 0.00 0.00 71 1012.2
20260504160312 14 186 1.6 8.0 0.00 0.00 0.00 71 1012.3